This is the latest recevied weather packets stored in our database for station/object SP4IM-13. If no packets are shown the sender has not sent any weather packets the latest 10 day(s).
| Time | Temp. | Humidity | Pressure | Rain* | Wind** | Luminosity | Snow |
|---|---|---|---|---|---|---|---|
| 1777390803 | 8.33° C | 46% | 1019 hPa | - | - | - | - |
| 1777390203 | 8.33° C | 45% | 1019 hPa | - | - | - | - |
| 1777389603 | 8.33° C | 44% | 1019 hPa | - | - | - | - |
| 1777389002 | 7.78° C | 46% | 1019 hPa | - | - | - | - |
| 1777388403 | 7.78° C | 47% | 1019 hPa | - | - | - | - |
| 1777387802 | 7.78° C | 47% | 1019 hPa | - | - | - | - |
| 1777387202 | 7.78° C | 48% | 1019 hPa | - | - | - | - |
| 1777386603 | 7.78° C | 49% | 1019 hPa | - | - | - | - |
| 1777386002 | 7.22° C | 49% | 1019 hPa | - | - | - | - |
| 1777385402 | 7.22° C | 49% | 1020 hPa | - | - | - | - |
| 1777384803 | 7.22° C | 55% | 1020 hPa | - | - | - | - |
| 1777384203 | 7.22° C | 57% | 1020 hPa | - | - | - | - |
| 1777383603 | 7.22° C | 55% | 1020 hPa | - | - | - | - |
| 1777383002 | 7.78° C | 52% | 1020 hPa | - | - | - | - |
| 1777382402 | 8.33° C | 52% | 1020 hPa | - | - | - | - |
| 1777381803 | 8.33° C | 55% | 1020 hPa | - | - | - | - |
| 1777381204 | 8.33° C | 52% | 1020 hPa | - | - | - | - |
| 1777380603 | 8.89° C | 49% | 1020 hPa | - | - | - | - |
| 1777380002 | 8.89° C | 46% | 1020 hPa | - | - | - | - |
| 1777379402 | 8.89° C | 47% | 1020 hPa | - | - | - | - |
| 1777378802 | 9.44° C | 49% | 1020 hPa | - | - | - | - |
| 1777378202 | 9.44° C | 50% | 1020 hPa | - | - | - | - |
| 1777377602 | 9.44° C | 52% | 1020 hPa | - | - | - | - |
| 1777377003 | 9.44° C | 51% | 1020 hPa | - | - | - | - |
| 1777376402 | 9.44° C | 49% | 1020 hPa | - | - | - | - |
* Rain since midnight (hover to see other rain measurements)
** Current wind speed in m/s (hover to see current wind gust speed)